EN

Hourly Weather Aberchirder

Today, 14 June, Monday

Time Temperature Precipitation Wind Pressure Humidity
00:00 +14°C° 0 mm 2 mps 749 mmHg 94%
01:00 +13°C° 0.6 mm 3 mps 749 mmHg 94%
02:00 +12°C° 0.6 mm 4 mps 748 mmHg 94%
03:00 +12°C° 0.6 mm 4 mps 748 mmHg 94%
04:00 +10°C° 0.2 mm 5 mps 748 mmHg 89%
05:00 +10°C° 0.2 mm 6 mps 748 mmHg 84%
06:00 +10°C° 0 mm 6 mps 748 mmHg 78%
07:00 +11°C° 0 mm 7 mps 748 mmHg 71%
08:00 +12°C° 0 mm 8 mps 749 mmHg 65%
09:00 +13°C° 0 mm 8 mps 749 mmHg 58%
10:00 +13°C° 0 mm 8 mps 749 mmHg 59%
11:00 +13°C° 0 mm 8 mps 749 mmHg 59%
12:00 +15°C° 0 mm 8 mps 749 mmHg 60%
13:00 +15°C° 0 mm 8 mps 749 mmHg 59%
14:00 +15°C° 0 mm 8 mps 749 mmHg 58%
15:00 +15°C° 0 mm 8 mps 750 mmHg 58%
16:00 +13°C° 0 mm 8 mps 750 mmHg 60%
17:00 +13°C° 0 mm 8 mps 750 mmHg 63%
18:00 +12°C° 0 mm 7 mps 750 mmHg 66%
19:00 +11°C° 0 mm 7 mps 751 mmHg 68%
20:00 +10°C° 0 mm 7 mps 751 mmHg 69%
21:00 +9°C° 0 mm 8 mps 752 mmHg 70%
22:00 +9°C° 0 mm 7 mps 752 mmHg 73%
23:00 +8°C° 0 mm 7 mps 752 mmHg 75%

Tomorrow, 15 June, Tuesday

Time Temperature Precipitation Wind Pressure Humidity
00:00 +6°C° 0 mm 7 mps 752 mmHg 77%
01:00 +7°C° 0 mm 6 mps 753 mmHg 79%
02:00 +6°C° 0 mm 5 mps 753 mmHg 81%
03:00 +6°C° 0 mm 4 mps 753 mmHg 83%
04:00 +8°C° 0 mm 3 mps 754 mmHg 79%
05:00 +9°C° 0 mm 2 mps 754 mmHg 76%
06:00 +11°C° 0 mm 1 mps 754 mmHg 72%
07:00 +12°C° 0 mm 2 mps 754 mmHg 69%
08:00 +12°C° 0 mm 4 mps 753 mmHg 66%
09:00 +13°C° 0 mm 5 mps 753 mmHg 62%
10:00 +13°C° 0 mm 6 mps 752 mmHg 61%
11:00 +14°C° 0 mm 7 mps 752 mmHg 59%
12:00 +13°C° 0 mm 8 mps 751 mmHg 57%
13:00 +13°C° 0 mm 8 mps 750 mmHg 61%
14:00 +13°C° 0 mm 8 mps 750 mmHg 64%
15:00 +14°C° 0 mm 7 mps 749 mmHg 67%
16:00 +14°C° 0 mm 7 mps 748 mmHg 69%
17:00 +12°C° 0 mm 7 mps 747 mmHg 72%
18:00 +12°C° 0 mm 7 mps 747 mmHg 74%
19:00 +12°C° 0 mm 7 mps 746 mmHg 71%
20:00 +14°C° 0 mm 6 mps 746 mmHg 68%
21:00 +14°C° 0 mm 6 mps 745 mmHg 65%
22:00 +14°C° 0 mm 5 mps 745 mmHg 66%
23:00 +14°C° 0 mm 5 mps 744 mmHg 68%

Day after tomorrow, 16 June, Wednesday

Time Temperature Precipitation Wind Pressure Humidity
00:00 +14°C° 0 mm 5 mps 744 mmHg 70%
01:00 +14°C° 0 mm 4 mps 743 mmHg 72%
02:00 +14°C° 0 mm 4 mps 743 mmHg 73%
03:00 +14°C° 0 mm 3 mps 743 mmHg 75%
04:00 +14°C° 0 mm 3 mps 743 mmHg 77%
05:00 +14°C° 0 mm 3 mps 743 mmHg 80%
06:00 +15°C° 0 mm 2 mps 743 mmHg 83%
07:00 +16°C° 0 mm 3 mps 743 mmHg 76%
08:00 +17°C° 0 mm 3 mps 743 mmHg 69%
09:00 +17°C° 0 mm 3 mps 743 mmHg 63%
10:00 +18°C° 0 mm 3 mps 744 mmHg 58%
11:00 +19°C° 0 mm 4 mps 744 mmHg 53%
12:00 +19°C° 0 mm 4 mps 744 mmHg 48%
13:00 +19°C° 0 mm 4 mps 744 mmHg 50%
14:00 +19°C° 0 mm 4 mps 744 mmHg 52%
15:00 +19°C° 0 mm 4 mps 744 mmHg 54%
16:00 +18°C° 0 mm 4 mps 744 mmHg 57%
17:00 +18°C° 0 mm 3 mps 744 mmHg 61%
18:00 +17°C° 0 mm 3 mps 744 mmHg 64%
19:00 +16°C° 0 mm 2 mps 745 mmHg 66%
20:00 +15°C° 0 mm 2 mps 745 mmHg 68%
21:00 +14°C° 0 mm 1 mps 745 mmHg 71%
22:00 +13°C° 0.2 mm 1 mps 745 mmHg 74%
23:00 +13°C° 0.2 mm 1 mps 745 mmHg 78%

17 June, Thursday

Time Temperature Precipitation Wind Pressure Humidity
00:00 +12°C° 0.2 mm 1 mps 746 mmHg 82%
01:00 +12°C° 1 mm 1 mps 746 mmHg 87%
02:00 +11°C° 1 mm 1 mps 746 mmHg 92%
03:00 +11°C° 1 mm 1 mps 746 mmHg 97%
04:00 +11°C° 0.2 mm 1 mps 746 mmHg 96%
05:00 +11°C° 0.2 mm 1 mps 746 mmHg 96%
06:00 +10°C° 0.2 mm 2 mps 747 mmHg 95%
07:00 +12°C° 0 mm 1 mps 747 mmHg 90%
08:00 +13°C° 0 mm 1 mps 747 mmHg 85%
09:00 +14°C° 0 mm 1 mps 747 mmHg 79%
10:00 +15°C° 0.1 mm 1 mps 748 mmHg 77%
11:00 +15°C° 0.1 mm 2 mps 748 mmHg 74%
12:00 +16°C° 0.1 mm 2 mps 748 mmHg 71%
13:00 +16°C° 0.2 mm 2 mps 748 mmHg 72%
14:00 +16°C° 0.2 mm 2 mps 748 mmHg 73%
15:00 +16°C° 0.2 mm 3 mps 748 mmHg 75%
16:00 +15°C° 0.3 mm 2 mps 749 mmHg 78%
17:00 +14°C° 0.3 mm 2 mps 749 mmHg 82%
18:00 +13°C° 0.3 mm 1 mps 749 mmHg 86%
19:00 +13°C° 0.1 mm 1 mps 750 mmHg 87%
20:00 +12°C° 0.1 mm 1 mps 750 mmHg 88%
21:00 +12°C° 0.1 mm 1 mps 751 mmHg 89%
22:00 +12°C° 0.1 mm 2 mps 751 mmHg 91%
23:00 +10°C° 0.1 mm 4 mps 752 mmHg 92%

18 June, Friday

Time Temperature Precipitation Wind Pressure Humidity
00:00 +9°C° 0.1 mm 5 mps 752 mmHg 93%
01:00 +10°C° 0 mm 4 mps 752 mmHg 92%
02:00 +8°C° 0 mm 4 mps 753 mmHg 92%
03:00 +8°C° 0 mm 4 mps 753 mmHg 91%
04:00 +8°C° 0 mm 4 mps 754 mmHg 89%
05:00 +9°C° 0 mm 3 mps 754 mmHg 86%
06:00 +9°C° 0 mm 3 mps 755 mmHg 84%
07:00 +10°C° 0 mm 3 mps 755 mmHg 79%
08:00 +11°C° 0 mm 3 mps 755 mmHg 74%
09:00 +12°C° 0 mm 2 mps 755 mmHg 69%
10:00 +12°C° 0 mm 3 mps 755 mmHg 67%
11:00 +12°C° 0 mm 3 mps 755 mmHg 65%
12:00 +13°C° 0 mm 3 mps 755 mmHg 63%
13:00 +13°C° 0 mm 4 mps 755 mmHg 64%
14:00 +12°C° 0 mm 4 mps 755 mmHg 66%
15:00 +12°C° 0 mm 5 mps 755 mmHg 67%
16:00 +12°C° 0 mm 4 mps 755 mmHg 69%
17:00 +11°C° 0 mm 4 mps 755 mmHg 70%
18:00 +11°C° 0 mm 4 mps 754 mmHg 71%
19:00 +10°C° 0 mm 4 mps 754 mmHg 74%
20:00 +9°C° 0 mm 3 mps 754 mmHg 77%
21:00 +9°C° 0 mm 3 mps 754 mmHg 80%
22:00 +8°C° 0 mm 2 mps 754 mmHg 83%
23:00 +8°C° 0 mm 2 mps 754 mmHg 85%

19 June, Saturday

Time Temperature Precipitation Wind Pressure Humidity
00:00 +7°C° 0 mm 2 mps 753 mmHg 88%
01:00 +7°C° 0 mm 2 mps 753 mmHg 89%
02:00 +6°C° 0 mm 2 mps 753 mmHg 90%
03:00 +7°C° 0 mm 1 mps 752 mmHg 90%
04:00 +7°C° 0 mm 2 mps 752 mmHg 87%
05:00 +8°C° 0 mm 2 mps 752 mmHg 83%
06:00 +9°C° 0 mm 2 mps 752 mmHg 79%
07:00 +10°C° 0 mm 2 mps 752 mmHg 74%
08:00 +12°C° 0 mm 2 mps 752 mmHg 69%
09:00 +13°C° 0 mm 2 mps 751 mmHg 64%
10:00 +12°C° 0 mm 3 mps 751 mmHg 64%
11:00 +13°C° 0 mm 3 mps 751 mmHg 63%
12:00 +13°C° 0 mm 3 mps 751 mmHg 63%
13:00 +13°C° 0 mm 4 mps 750 mmHg 63%
14:00 +14°C° 0 mm 4 mps 750 mmHg 63%
15:00 +14°C° 0 mm 4 mps 750 mmHg 64%
16:00 +14°C° 0 mm 4 mps 750 mmHg 66%
17:00 +13°C° 0 mm 4 mps 750 mmHg 69%
18:00 +13°C° 0 mm 5 mps 749 mmHg 71%
19:00 +12°C° 0 mm 4 mps 749 mmHg 77%
20:00 +10°C° 0 mm 3 mps 749 mmHg 82%
21:00 +9°C° 0 mm 3 mps 749 mmHg 88%
22:00 +9°C° 0 mm 3 mps 749 mmHg 89%
23:00 +8°C° 0 mm 3 mps 749 mmHg 89%
Show more